Portada
METAR-TAF:

METAR-TAF

Aeroports :

Thoothukudi, Índia

latitud: 8-43-27N, longitud: 78-01-33E, altitud: 39 m

Observació

L'informe es va fer fa 18 minuts, a les 03:00 UTC
Vent 5 kt del Nord/Nord-Oest
Temperatura 27°C
Humitat 79%
Pressió 1014 hPa
Visibilitat: 5000 m
Escasses núvols a una alçada de 2000 ft
boirina

METAR: VOTK 010300Z 34005KT 5000 BR FEW020 27/23 Q1014 NOSIG

Hora: 08:48 (03:18 UTC)


TAF: manca

Observacions i pronòstics meteorològics de més de 4000 aeroports (METAR i TAF).

Les estacions disponibles són els punts grocs i vermells al mapa.

Posi el ratolí al punt desitjat per veure el nom de l'estació.

Feu clic per veure les observacions i els pronòstics meteorològics.

Per canviar el mapa: feu clic els botons verds amb una creu de color negre per apropar; al botó verd amb un guió per allunyar la imatge; o en les fletxes verdes per a mapes adjacents.


METAR-TAF: